,,Stat6,,Stat2,,Stat8,,Stat9,,Stat10,,Wind1,,Wind1,
time,status,PA1M_AVG,status,PR1M_SUM,status,RH1M_AVG,status,SR1M_AVG,status,TA1M_AVG,status,W1dAve1m,status,W1sAve1m,
2008-08-25, 00:00:00,VALID,918.637,VALID,0,VALID,100,VALID,0.0509425,VALID,18.711,VALID,16,VALID,0.053234,
2008-08-25, 00:01:00,VALID,918.629,VALID,0,VALID,100,VALID,0.0509425,VALID,18.714,VALID,33,VALID,0,
2008-08-25, 00:02:00,VALID,918.613,VALID,0,VALID,100,VALID,0.0679233,VALID,18.7135,VALID,26,VALID,0.196911,
2008-08-25, 00:03:00,VALID,918.625,VALID,0,VALID,100,VALID,0.0169808,VALID,18.7242,VALID,34,VALID,1.19495,
2008-08-25, 00:04:00,VALID,918.621,VALID,0,VALID,100,VALID,0,VALID,18.7339,VALID,12,VALID,0.10293,
2008-08-25, 00:05:00,VALID,918.624,VALID,0,VALID,100,VALID,0.0169808,VALID,18.7177,VALID,23,VALID,0,
2008-08-25, 00:06:00,VALID,918.617,VALID,0,VALID,100,VALID,-0.0509425,VALID,18.7346,VALID,14,VALID,0,
2008-08-25, 00:07:00,VALID,918.626,VALID,0,VALID,100,VALID,-0.101885,VALID,18.7548,VALID,25,VALID,0,
2008-08-25, 00:08:00,VALID,918.625,VALID,0,VALID,100,VALID,-0.101885,VALID,18.7323,VALID,8,VALID,0.352493,
2008-08-25, 00:09:00,VALID,918.612,VALID,0,VALID,100,VALID,-0.0849042,VALID,18.7091,VALID,357,VALID,1.13281,
2008-08-25, 00:10:00,VALID,918.609,VALID,0,VALID,100,VALID,-0.0679233,VALID,18.7029,VALID,18,VALID,0.751453,
2008-08-25, 00:11:00,VALID,918.602,VALID,0,VALID,100,VALID,-0.101885,VALID,18.7054,VALID,14,VALID,0.691592,
2008-08-25, 00:12:00,VALID,918.595,VALID,0,VALID,100,VALID,-0.0849042,VALID,18.6997,VALID,21,VALID,0.978993,
2008-08-25, 00:13:00,VALID,918.591,VALID,0,VALID,100,VALID,-0.0849042,VALID,18.7124,VALID,25,VALID,1.24148,
2008-08-25, 00:14:00,VALID,918.583,VALID,0,VALID,100,VALID,-0.0849042,VALID,18.6994,VALID,30,VALID,1.30069,
2008-08-25, 00:15:00,VALID,918.579,VALID,0,VALID,100,VALID,-0.0679233,VALID,18.7089,VALID,359,VALID,0.831364,
2008-08-25, 00:16:00,VALID,918.576,VALID,0,VALID,100,VALID,-0.0339617,VALID,18.7122,VALID,350,VALID,0,
2008-08-25, 00:17:00,VALID,918.562,VALID,0,VALID,100,VALID,-0.0509425,VALID,18.7286,VALID,8,VALID,0.307706,
2008-08-25, 00:18:00,VALID,918.547,VALID,0,VALID,100,VALID,-0.0849042,VALID,18.7291,VALID,38,VALID,0.646484,
2008-08-25, 00:19:00,VALID,918.52,VALID,0,VALID,100,VALID,-0.0679233,VALID,18.7216,VALID,30,VALID,0.364524,
2008-08-25, 00:20:00,VALID,918.514,VALID,0,VALID,100,VALID,-0.0849042,VALID,18.7578,VALID,31,VALID,0.360863,
2008-08-25, 00:21:00,VALID,918.5,VALID,0,VALID,100,VALID,0,VALID,18.7761,VALID,29,VALID,1.0418,
2008-08-25, 00:22:00,VALID,918.489,VALID,0,VALID,100,VALID,0,VALID,18.7865,VALID,26,VALID,1.06789,
2008-08-25, 00:23:00,VALID,918.472,VALID,0,VALID,100,VALID,-0.0339617,VALID,18.783,VALID,30,VALID,0.754607,
2008-08-25, 00:24:00,VALID,918.463,VALID,0,VALID,100,VALID,-0.0169808,VALID,18.7376,VALID,31,VALID,0.83125,
2008-08-25, 00:25:00,VALID,918.451,VALID,0,VALID,100,VALID,-0.0169808,VALID,18.702,VALID,30,VALID,0.34096,
2008-08-25, 00:26:00,VALID,918.447,VALID,0,VALID,100,VALID,-0.0169808,VALID,18.6989,VALID,16,VALID,0,
2008-08-25, 00:27:00,VALID,918.443,VALID,0,VALID,100,VALID,0,VALID,18.7117,VALID,330,VALID,0.279297,
2008-08-25, 00:28:00,VALID,918.43,VALID,0,VALID,100,VALID,-0.0339617,VALID,18.702,VALID,33,VALID,0.32472,
2008-08-25, 00:29:00,VALID,918.425,VALID,0,VALID,100,VALID,-0.0339617,VALID,18.7279,VALID,30,VALID,0,
2008-08-25, 00:30:00,VALID,918.406,VALID,0,VALID,100,VALID,0.0169808,VALID,18.7406,VALID,39,VALID,0,
2008-08-25, 00:31:00,VALID,918.403,VALID,0,VALID,100,VALID,0,VALID,18.7441,VALID,35,VALID,0,
2008-08-25, 00:32:00,VALID,918.398,VALID,0,VALID,100,VALID,0,VALID,18.7441,VALID,30,VALID,0,
2008-08-25, 00:33:00,VALID,918.372,VALID,0,VALID,100,VALID,0,VALID,18.7182,VALID,6,VALID,1.37305,
2008-08-25, 00:34:00,VALID,918.366,VALID,0,VALID,100,VALID,-0.0339617,VALID,18.673,VALID,18,VALID,0.921148,
2008-08-25, 00:35:00,VALID,918.348,VALID,0,VALID,100,VALID,0.0169808,VALID,18.6663,VALID,13,VALID,0.00999273,
2008-08-25, 00:36:00,VALID,918.357,VALID,0,VALID,100,VALID,-0.0169808,VALID,18.6792,VALID,12,VALID,0,
2008-08-25, 00:37:00,VALID,918.338,VALID,0,VALID,100,VALID,-0.0169808,VALID,18.6788,VALID,7,VALID,0.107013,
2008-08-25, 00:38:00,VALID,918.329,VALID,0,VALID,100,VALID,0,VALID,18.7054,VALID,21,VALID,0.404344,
2008-08-25, 00:39:00,VALID,918.317,VALID,0,VALID,100,VALID,-0.0169808,VALID,18.7152,VALID,21,VALID,0.136719,
2008-08-25, 00:40:00,VALID,918.296,VALID,0,VALID,100,VALID,-0.0339617,VALID,18.6925,VALID,2,VALID,0.205673,
2008-08-25, 00:41:00,VALID,918.271,VALID,0,VALID,100,VALID,-0.0169808,VALID,18.6468,VALID,40,VALID,1.3092,
2008-08-25, 00:42:00,VALID,918.257,VALID,0,VALID,100,VALID,0,VALID,18.6533,VALID,26,VALID,1.03834,
2008-08-25, 00:43:00,VALID,918.247,VALID,0,VALID,100,VALID,0,VALID,18.6728,VALID,26,VALID,0.846354,
2008-08-25, 00:44:00,VALID,918.224,VALID,0,VALID,100,VALID,-0.0169808,VALID,18.6825,VALID,39,VALID,0.863281,
2008-08-25, 00:45:00,VALID,918.206,VALID,0,VALID,100,VALID,-0.0509425,VALID,18.676,VALID,36,VALID,0.149709,
2008-08-25, 00:46:00,VALID,918.199,VALID,0,VALID,100,VALID,0,VALID,18.6825,VALID,18,VALID,0.653646,
2008-08-25, 00:47:00,VALID,918.184,VALID,0,VALID,100,VALID,0,VALID,18.6593,VALID,12,VALID,0.90997,
2008-08-25, 00:48:00,VALID,918.151,VALID,0,VALID,100,VALID,0,VALID,18.6563,VALID,22,VALID,0.713415,
2008-08-25, 00:49:00,VALID,918.12,VALID,0,VALID,100,VALID,0,VALID,18.6593,VALID,22,VALID,1.09979,
2008-08-25, 00:50:00,VALID,918.108,VALID,0,VALID,100,VALID,0,VALID,18.6693,VALID,25,VALID,0.680208,
2008-08-25, 00:51:00,VALID,918.076,VALID,0,VALID,100,VALID,-0.0849042,VALID,18.6802,VALID,25,VALID,0.34933,
2008-08-25, 00:52:00,VALID,918.066,VALID,0,VALID,100,VALID,-0.135847,VALID,18.6869,VALID,16,VALID,0.732887,
2008-08-25, 00:53:00,VALID,918.067,VALID,0,VALID,100,VALID,-0.101885,VALID,18.6772,VALID,14,VALID,0.77763,
2008-08-25, 00:54:00,VALID,918.057,VALID,0,VALID,100,VALID,-0.0849042,VALID,18.6612,VALID,18,VALID,0.733665,
2008-08-25, 00:55:00,VALID,918.042,VALID,0,VALID,100,VALID,-0.101885,VALID,18.6547,VALID,19,VALID,1.24528,
2008-08-25, 00:56:00,VALID,918.051,VALID,0,VALID,100,VALID,-0.101885,VALID,18.6547,VALID,28,VALID,0.923678,
2008-08-25, 00:57:00,VALID,918.04,VALID,0,VALID,100,VALID,-0.118866,VALID,18.6607,VALID,20,VALID,0.400436,
2008-08-25, 00:58:00,VALID,918.021,VALID,0,VALID,100,VALID,-0.101885,VALID,18.6478,VALID,15,VALID,0,
2008-08-25, 00:59:00,VALID,918.013,VALID,0,VALID,100,VALID,-0.101885,VALID,18.6679,VALID,15,VALID,0,
2008-08-25, 01:00:00,VALID,918.002,VALID,0,VALID,100,VALID,-0.118866,VALID,18.6542,VALID,15,VALID,0,
2008-08-25, 01:01:00,VALID,917.965,VALID,0,VALID,100,VALID,-0.101885,VALID,18.6478,VALID,15,VALID,0,
2008-08-25, 01:02:00,VALID,917.958,VALID,0,VALID,100,VALID,-0.101885,VALID,18.6385,VALID,15,VALID,0,
2008-08-25, 01:03:00,VALID,917.942,VALID,0,VALID,100,VALID,-0.101885,VALID,18.6385,VALID,26,VALID,0,
2008-08-25, 01:04:00,VALID,917.913,VALID,0,VALID,100,VALID,-0.152827,VALID,18.6322,VALID,25,VALID,0,
2008-08-25, 01:05:00,VALID,917.895,VALID,0,VALID,100,VALID,-0.118866,VALID,18.6253,VALID,25,VALID,0,
2008-08-25, 01:06:00,VALID,917.877,VALID,0,VALID,100,VALID,-0.0169808,VALID,18.647,VALID,25,VALID,0,
2008-08-25, 01:07:00,VALID,917.845,VALID,0,VALID,100,VALID,-0.0169808,VALID,18.66,VALID,25,VALID,0,
2008-08-25, 01:08:00,VALID,917.824,VALID,0,VALID,100,VALID,0.0169808,VALID,18.6596,VALID,25,VALID,0,
2008-08-25, 01:09:00,VALID,917.805,VALID,0,VALID,100,VALID,0,VALID,18.6565,VALID,25,VALID,0,
2008-08-25, 01:10:00,VALID,917.809,VALID,0,VALID,100,VALID,0,VALID,18.6663,VALID,25,VALID,0,
2008-08-25, 01:11:00,VALID,917.779,VALID,0,VALID,100,VALID,-0.0339617,VALID,18.6628,VALID,25,VALID,0,
2008-08-25, 01:12:00,VALID,917.781,VALID,0,VALID,100,VALID,-0.0169808,VALID,18.6792,VALID,25,VALID,0,
2008-08-25, 01:13:00,VALID,917.757,VALID,0,VALID,100,VALID,0,VALID,18.6792,VALID,25,VALID,0,
2008-08-25, 01:14:00,VALID,917.75,VALID,0,VALID,100,VALID,-0.0339617,VALID,18.6857,VALID,25,VALID,0,
2008-08-25, 01:15:00,VALID,917.726,VALID,0,VALID,100,VALID,0.0169808,VALID,18.6721,VALID,25,VALID,0,
2008-08-25, 01:16:00,VALID,917.728,VALID,0,VALID,100,VALID,-0.0169808,VALID,18.6596,VALID,25,VALID,0,
2008-08-25, 01:17:00,VALID,917.702,VALID,0,VALID,100,VALID,0,VALID,18.6433,VALID,25,VALID,0,
2008-08-25, 01:18:00,VALID,917.688,VALID,0,VALID,100,VALID,-0.0169808,VALID,18.6401,VALID,25,VALID,0,
2008-08-25, 01:19:00,VALID,917.661,VALID,0,VALID,100,VALID,0,VALID,18.6371,VALID,25,VALID,0,
2008-08-25, 01:20:00,VALID,917.648,VALID,0,VALID,100,VALID,0,VALID,18.6109,VALID,19,VALID,0,
2008-08-25, 01:21:00,VALID,917.631,VALID,0,VALID,100,VALID,-0.0509425,VALID,18.5917,VALID,16,VALID,0,
2008-08-25, 01:22:00,VALID,917.62,VALID,0,VALID,100,VALID,-0.0339617,VALID,18.5852,VALID,16,VALID,0,
2008-08-25, 01:23:00,VALID,917.594,VALID,0,VALID,100,VALID,-0.0509425,VALID,18.5789,VALID,17,VALID,0,
2008-08-25, 01:24:00,VALID,917.575,VALID,0,VALID,100,VALID,-0.0679233,VALID,18.5725,VALID,14,VALID,0,
2008-08-25, 01:25:00,VALID,917.563,VALID,0,VALID,100,VALID,-0.0679233,VALID,18.5528,VALID,13,VALID,0,
2008-08-25, 01:26:00,VALID,917.526,VALID,0.2,VALID,100,VALID,-0.0169808,VALID,18.556,VALID,3,VALID,0.095348,
2008-08-25, 01:27:00,VALID,917.499,VALID,0,VALID,100,VALID,-0.0339617,VALID,18.5495,VALID,17,VALID,0,
2008-08-25, 01:28:00,VALID,917.48,VALID,0,VALID,100,VALID,-0.0169808,VALID,18.5495,VALID,34,VALID,0.000558036,
2008-08-25, 01:29:00,VALID,917.455,VALID,0,VALID,100,VALID,-0.0339617,VALID,18.5368,VALID,21,VALID,0.0221657,
2008-08-25, 01:30:00,VALID,917.438,VALID,0,VALID,100,VALID,-0.0509425,VALID,18.5305,VALID,12,VALID,0,
2008-08-25, 01:31:00,VALID,917.423,VALID,0,VALID,100,VALID,-0.0509425,VALID,18.5333,VALID,14,VALID,0,
2008-08-25, 01:32:00,VALID,917.405,VALID,0,VALID,100,VALID,-0.0679233,VALID,18.5465,VALID,13,VALID,0.345796,
2008-08-25, 01:33:00,VALID,917.392,VALID,0,VALID,100,VALID,-0.0509425,VALID,18.5365,VALID,28,VALID,0.477257,
2008-08-25, 01:34:00,VALID,917.379,VALID,0,VALID,100,VALID,-0.101885,VALID,18.54,VALID,1,VALID,0.747337,
2008-08-25, 01:35:00,VALID,917.373,VALID,0,VALID,100,VALID,-0.0679233,VALID,18.5275,VALID,19,VALID,0.644717,
2008-08-25, 01:36:00,VALID,917.362,VALID,0,VALID,100,VALID,0.0169808,VALID,18.5161,VALID,21,VALID,0.326953,
2008-08-25, 01:37:00,VALID,917.352,VALID,0,VALID,100,VALID,0.0679233,VALID,18.5157,VALID,35,VALID,0,
2008-08-25, 01:38:00,VALID,917.334,VALID,0,VALID,100,VALID,0.0849042,VALID,18.5124,VALID,38,VALID,0,
2008-08-25, 01:39:00,VALID,917.323,VALID,0,VALID,100,VALID,0.0849042,VALID,18.5259,VALID,40,VALID,0,
2008-08-25, 01:40:00,VALID,917.29,VALID,0,VALID,100,VALID,0.0509425,VALID,18.5124,VALID,17,VALID,0,
2008-08-25, 01:41:00,VALID,917.26,VALID,0,VALID,100,VALID,0.0169808,VALID,18.5094,VALID,10,VALID,0,
2008-08-25, 01:42:00,VALID,917.234,VALID,0,VALID,100,VALID,0.0509425,VALID,18.4895,VALID,12,VALID,0,
2008-08-25, 01:43:00,VALID,917.212,VALID,0,VALID,100,VALID,0.0679233,VALID,18.4832,VALID,20,VALID,0.607067,
2008-08-25, 01:44:00,VALID,917.197,VALID,0,VALID,100,VALID,0.0339617,VALID,18.4705,VALID,20,VALID,0.819754,
2008-08-25, 01:45:00,VALID,917.18,VALID,0,VALID,100,VALID,0.0509425,VALID,18.4638,VALID,27,VALID,1.04523,
2008-08-25, 01:46:00,VALID,917.16,VALID,0,VALID,100,VALID,0.0339617,VALID,18.4703,VALID,17,VALID,0.959339,
2008-08-25, 01:47:00,VALID,917.141,VALID,0,VALID,100,VALID,0.101885,VALID,18.4606,VALID,26,VALID,1.10733,
2008-08-25, 01:48:00,VALID,917.132,VALID,0,VALID,100,VALID,0.0679233,VALID,18.4541,VALID,30,VALID,1.00182,
2008-08-25, 01:49:00,VALID,917.128,VALID,0,VALID,100,VALID,0.101885,VALID,18.4538,VALID,9,VALID,0.694041,
2008-08-25, 01:50:00,VALID,917.111,VALID,0,VALID,100,VALID,0.101885,VALID,18.4374,VALID,30,VALID,1.10719,
2008-08-25, 01:51:00,VALID,917.113,VALID,0,VALID,100,VALID,-0.0169808,VALID,18.4423,VALID,30,VALID,0.775645,
2008-08-25, 01:52:00,VALID,917.102,VALID,0,VALID,100,VALID,-0.0509425,VALID,18.4425,VALID,13,VALID,1.00205,
2008-08-25, 01:53:00,VALID,917.094,VALID,0,VALID,100,VALID,-0.0339617,VALID,18.4358,VALID,20,VALID,0.031808,
2008-08-25, 01:54:00,VALID,917.086,VALID,0,VALID,100,VALID,-0.0169808,VALID,18.4358,VALID,26,VALID,0.040516,
2008-08-25, 01:55:00,VALID,917.08,VALID,0,VALID,100,VALID,0,VALID,18.4328,VALID,358,VALID,0.0635901,
2008-08-25, 01:56:00,VALID,917.071,VALID,0,VALID,100,VALID,0,VALID,18.4263,VALID,19,VALID,0,
2008-08-25, 01:57:00,VALID,917.066,VALID,0,VALID,100,VALID,0,VALID,18.4226,VALID,2,VALID,0,
2008-08-25, 01:58:00,VALID,917.068,VALID,0,VALID,100,VALID,-0.0339617,VALID,18.4165,VALID,352,VALID,0,
2008-08-25, 01:59:00,VALID,917.069,VALID,0,VALID,100,VALID,0,VALID,18.3996,VALID,32,VALID,0,
2008-08-25, 02:00:00,VALID,917.08,VALID,0,VALID,100,VALID,0,VALID,18.4226,VALID,32,VALID,0,
2008-08-25, 02:01:00,VALID,917.077,VALID,0,VALID,100,VALID,-0.0169808,VALID,18.4189,VALID,7,VALID,0,
2008-08-25, 02:02:00,VALID,917.101,VALID,0,VALID,100,VALID,0,VALID,18.4323,VALID,10,VALID,0,
2008-08-25, 02:03:00,VALID,917.101,VALID,0,VALID,100,VALID,-0.0339617,VALID,18.4328,VALID,10,VALID,0,
2008-08-25, 02:04:00,VALID,917.114,VALID,0,VALID,100,VALID,-0.0509425,VALID,18.4323,VALID,10,VALID,0,
2008-08-25, 02:05:00,VALID,917.115,VALID,0,VALID,100,VALID,-0.0679233,VALID,18.436,VALID,11,VALID,0,
2008-08-25, 02:06:00,VALID,917.131,VALID,0,VALID,100,VALID,-0.0679233,VALID,18.4457,VALID,11,VALID,0,
2008-08-25, 02:07:00,VALID,917.119,VALID,0,VALID,100,VALID,-0.101885,VALID,18.4492,VALID,11,VALID,0,
2008-08-25, 02:08:00,VALID,917.124,VALID,0,VALID,100,VALID,-0.0509425,VALID,18.4555,VALID,11,VALID,0,
2008-08-25, 02:09:00,VALID,917.116,VALID,0,VALID,100,VALID,-0.0509425,VALID,18.4548,VALID,11,VALID,0,
2008-08-25, 02:10:00,VALID,917.113,VALID,0,VALID,100,VALID,-0.0339617,VALID,18.4555,VALID,11,VALID,0,
2008-08-25, 02:11:00,VALID,917.097,VALID,0,VALID,100,VALID,-0.0339617,VALID,18.4525,VALID,11,VALID,0,
2008-08-25, 02:12:00,VALID,917.088,VALID,0,VALID,100,VALID,-0.0679233,VALID,18.4555,VALID,11,VALID,0,
2008-08-25, 02:13:00,VALID,917.089,VALID,0,VALID,100,VALID,-0.0509425,VALID,18.4425,VALID,12,VALID,0,
2008-08-25, 02:14:00,VALID,917.075,VALID,0,VALID,100,VALID,-0.0509425,VALID,18.4325,VALID,13,VALID,0,
2008-08-25, 02:15:00,VALID,917.06,VALID,0,VALID,100,VALID,-0.0679233,VALID,18.436,VALID,16,VALID,0,
2008-08-25, 02:16:00,VALID,917.059,VALID,0,VALID,100,VALID,-0.0339617,VALID,18.4191,VALID,18,VALID,0,
2008-08-25, 02:17:00,VALID,917.061,VALID,0,VALID,100,VALID,-0.0339617,VALID,18.4228,VALID,18,VALID,0,
2008-08-25, 02:18:00,VALID,917.059,VALID,0,VALID,100,VALID,-0.0339617,VALID,18.4295,VALID,18,VALID,0,
2008-08-25, 02:19:00,VALID,917.054,VALID,0,VALID,100,VALID,-0.0509425,VALID,18.4295,VALID,18,VALID,0,
2008-08-25, 02:20:00,VALID,917.058,VALID,0,VALID,100,VALID,-0.0509425,VALID,18.4392,VALID,18,VALID,0,
2008-08-25, 02:21:00,VALID,917.046,VALID,0,VALID,100,VALID,-0.0509425,VALID,18.4487,VALID,18,VALID,0,
2008-08-25, 02:22:00,VALID,917.044,VALID,0,VALID,100,VALID,-0.0509425,VALID,18.449,VALID,18,VALID,0,
2008-08-25, 02:23:00,VALID,917.03,VALID,0,VALID,100,VALID,-0.0849042,VALID,18.4522,VALID,18,VALID,0,
2008-08-25, 02:24:00,VALID,917.02,VALID,0,VALID,100,VALID,-0.0679233,VALID,18.4559,VALID,121,VALID,0,
2008-08-25, 02:25:00,VALID,917.011,VALID,0,VALID,100,VALID,-0.0849042,VALID,18.4557,VALID,129,VALID,0,
2008-08-25, 02:26:00,VALID,917.011,VALID,0,VALID,100,VALID,-0.0509425,VALID,18.4587,VALID,129,VALID,0,
2008-08-25, 02:27:00,VALID,916.999,VALID,0,VALID,100,VALID,-0.0509425,VALID,18.465,VALID,129,VALID,0,
2008-08-25, 02:28:00,VALID,916.994,VALID,0,VALID,100,VALID,-0.0339617,VALID,18.4682,VALID,157,VALID,0,
2008-08-25, 02:29:00,VALID,916.988,VALID,0,VALID,100,VALID,-0.0509425,VALID,18.4847,VALID,158,VALID,0,
2008-08-25, 02:30:00,VALID,916.985,VALID,0,VALID,100,VALID,-0.0849042,VALID,18.4976,VALID,163,VALID,0,
2008-08-25, 02:31:00,VALID,916.983,VALID,0,VALID,100,VALID,-0.0509425,VALID,18.5106,VALID,163,VALID,0,
2008-08-25, 02:32:00,VALID,916.972,VALID,0,VALID,100,VALID,-0.0339617,VALID,18.5009,VALID,163,VALID,0,
2008-08-25, 02:33:00,VALID,916.972,VALID,0,VALID,100,VALID,-0.0849042,VALID,18.5039,VALID,163,VALID,0,
2008-08-25, 02:34:00,VALID,916.959,VALID,0,VALID,100,VALID,0,VALID,18.5004,VALID,163,VALID,0,
2008-08-25, 02:35:00,VALID,916.97,VALID,0,VALID,100,VALID,-0.0679233,VALID,18.5039,VALID,165,VALID,0,
2008-08-25, 02:36:00,VALID,916.962,VALID,0,VALID,100,VALID,-0.0509425,VALID,18.5173,VALID,165,VALID,0,
2008-08-25, 02:37:00,VALID,916.953,VALID,0,VALID,100,VALID,-0.0679233,VALID,18.5104,VALID,165,VALID,0,
2008-08-25, 02:38:00,VALID,916.952,VALID,0,VALID,100,VALID,-0.0509425,VALID,18.5006,VALID,165,VALID,0,
2008-08-25, 02:39:00,VALID,916.941,VALID,0,VALID,100,VALID,-0.0679233,VALID,18.4879,VALID,165,VALID,0,
2008-08-25, 02:40:00,VALID,916.944,VALID,0,VALID,100,VALID,-0.0679233,VALID,18.4914,VALID,155,VALID,0,
2008-08-25, 02:41:00,VALID,916.932,VALID,0,VALID,100,VALID,-0.0679233,VALID,18.4911,VALID,159,VALID,0,
2008-08-25, 02:42:00,VALID,916.93,VALID,0,VALID,100,VALID,-0.0849042,VALID,18.4881,VALID,165,VALID,0,
2008-08-25, 02:43:00,VALID,916.921,VALID,0,VALID,100,VALID,-0.0679233,VALID,18.4682,VALID,163,VALID,0,
2008-08-25, 02:44:00,VALID,916.921,VALID,0,VALID,100,VALID,-0.0679233,VALID,18.4682,VALID,155,VALID,0,
2008-08-25, 02:45:00,VALID,916.916,VALID,0,VALID,100,VALID,-0.0679233,VALID,18.4684,VALID,152,VALID,0,
2008-08-25, 02:46:00,VALID,916.92,VALID,0,VALID,100,VALID,-0.0339617,VALID,18.4585,VALID,139,VALID,0,
2008-08-25, 02:47:00,VALID,916.922,VALID,0,VALID,100,VALID,-0.0509425,VALID,18.4423,VALID,136,VALID,0,
2008-08-25, 02:48:00,VALID,916.921,VALID,0,VALID,100,VALID,-0.0509425,VALID,18.4293,VALID,134,VALID,0,
2008-08-25, 02:49:00,VALID,916.919,VALID,0,VALID,100,VALID,-0.0509425,VALID,18.4392,VALID,134,VALID,0,
2008-08-25, 02:50:00,VALID,916.921,VALID,0,VALID,100,VALID,-0.0849042,VALID,18.4425,VALID,136,VALID,0,
2008-08-25, 02:51:00,VALID,916.926,VALID,0,VALID,100,VALID,0.0169808,VALID,18.448,VALID,136,VALID,0,
2008-08-25, 02:52:00,VALID,916.909,VALID,0,VALID,100,VALID,0.0169808,VALID,18.4541,VALID,136,VALID,0,
2008-08-25, 02:53:00,VALID,916.907,VALID,0,VALID,100,VALID,0.0509425,VALID,18.4543,VALID,136,VALID,0,
2008-08-25, 02:54:00,VALID,916.915,VALID,0,VALID,100,VALID,0.0169808,VALID,18.4538,VALID,136,VALID,0,
2008-08-25, 02:55:00,VALID,916.906,VALID,0,VALID,100,VALID,0.0679233,VALID,18.4608,VALID,140,VALID,0,
2008-08-25, 02:56:00,VALID,916.909,VALID,0,VALID,100,VALID,0.0509425,VALID,18.4541,VALID,150,VALID,0,
2008-08-25, 02:57:00,VALID,916.901,VALID,0,VALID,100,VALID,0.0679233,VALID,18.4409,VALID,149,VALID,0,
2008-08-25, 02:58:00,VALID,916.895,VALID,0,VALID,100,VALID,0,VALID,18.4446,VALID,144,VALID,0,
2008-08-25, 02:59:00,VALID,916.899,VALID,0,VALID,100,VALID,0.0169808,VALID,18.4411,VALID,140,VALID,0,
2008-08-25, 03:00:00,VALID,916.892,VALID,0,VALID,100,VALID,0.0509425,VALID,18.4314,VALID,138,VALID,0,
2008-08-25, 03:01:00,VALID,916.897,VALID,0,VALID,100,VALID,0.0679233,VALID,18.4443,VALID,135,VALID,0,
2008-08-25, 03:02:00,VALID,916.895,VALID,0,VALID,100,VALID,0.0339617,VALID,18.4374,VALID,135,VALID,0,
2008-08-25, 03:03:00,VALID,916.884,VALID,0,VALID,100,VALID,0.0169808,VALID,18.4443,VALID,140,VALID,0,
2008-08-25, 03:04:00,VALID,916.874,VALID,0,VALID,100,VALID,0.0339617,VALID,18.4573,VALID,142,VALID,0,
2008-08-25, 03:05:00,VALID,916.86,VALID,0,VALID,100,VALID,0.0339617,VALID,18.4633,VALID,134,VALID,0,
2008-08-25, 03:06:00,VALID,916.868,VALID,0,VALID,100,VALID,-0.0339617,VALID,18.4712,VALID,136,VALID,0,
2008-08-25, 03:07:00,VALID,916.872,VALID,0,VALID,100,VALID,-0.0339617,VALID,18.4682,VALID,151,VALID,0,
2008-08-25, 03:08:00,VALID,916.881,VALID,0,VALID,100,VALID,-0.0339617,VALID,18.4617,VALID,149,VALID,0,
2008-08-25, 03:09:00,VALID,916.879,VALID,0,VALID,100,VALID,-0.0509425,VALID,18.448,VALID,138,VALID,0.26456,
2008-08-25, 03:10:00,VALID,916.879,VALID,0,VALID,100,VALID,-0.0339617,VALID,18.4485,VALID,135,VALID,0.158537,
2008-08-25, 03:11:00,VALID,916.878,VALID,0,VALID,100,VALID,0,VALID,18.4455,VALID,144,VALID,0.677401,
2008-08-25, 03:12:00,VALID,916.871,VALID,0,VALID,100,VALID,-0.0849042,VALID,18.4423,VALID,148,VALID,1.25286,
2008-08-25, 03:13:00,VALID,916.855,VALID,0,VALID,100,VALID,-0.0679233,VALID,18.4423,VALID,153,VALID,1.16886,
2008-08-25, 03:14:00,VALID,916.84,VALID,0,VALID,100,VALID,-0.0339617,VALID,18.4328,VALID,158,VALID,0.926711,
2008-08-25, 03:15:00,VALID,916.836,VALID,0,VALID,100,VALID,-0.0169808,VALID,18.4325,VALID,154,VALID,0.846591,
2008-08-25, 03:16:00,VALID,916.828,VALID,0,VALID,100,VALID,-0.0849042,VALID,18.4228,VALID,146,VALID,0.871982,
2008-08-25, 03:17:00,VALID,916.828,VALID,0,VALID,100,VALID,-0.0849042,VALID,18.4228,VALID,138,VALID,1.01848,
2008-08-25, 03:18:00,VALID,916.805,VALID,0,VALID,100,VALID,-0.0169808,VALID,18.4258,VALID,146,VALID,0.868608,
2008-08-25, 03:19:00,VALID,916.799,VALID,0,VALID,100,VALID,-0.0509425,VALID,18.4163,VALID,159,VALID,0.871003,
2008-08-25, 03:20:00,VALID,916.786,VALID,0,VALID,100,VALID,-0.0169808,VALID,18.4026,VALID,168,VALID,0.758398,
2008-08-25, 03:21:00,VALID,916.771,VALID,0,VALID,100,VALID,-0.0169808,VALID,18.4029,VALID,177,VALID,0.284375,
2008-08-25, 03:22:00,VALID,916.785,VALID,0,VALID,100,VALID,-0.0339617,VALID,18.4193,VALID,171,VALID,0.0346799,
2008-08-25, 03:23:00,VALID,916.763,VALID,0,VALID,100,VALID,-0.0169808,VALID,18.4029,VALID,167,VALID,0.257068,
2008-08-25, 03:24:00,VALID,916.754,VALID,0,VALID,100,VALID,-0.0339617,VALID,18.4133,VALID,167,VALID,0.222461,
2008-08-25, 03:25:00,VALID,916.748,VALID,0,VALID,100,VALID,-0.0169808,VALID,18.4131,VALID,157,VALID,0.908727,
2008-08-25, 03:26:00,VALID,916.743,VALID,0,VALID,100,VALID,-0.0339617,VALID,18.4066,VALID,147,VALID,0.496761,
2008-08-25, 03:27:00,VALID,916.744,VALID,0,VALID,100,VALID,-0.0339617,VALID,18.4001,VALID,149,VALID,0.870458,
2008-08-25, 03:28:00,VALID,916.742,VALID,0,VALID,100,VALID,-0.0169808,VALID,18.3969,VALID,148,VALID,0.669513,
2008-08-25, 03:29:00,VALID,916.732,VALID,0,VALID,100,VALID,-0.0339617,VALID,18.4001,VALID,152,VALID,0.90811,
2008-08-25, 03:30:00,VALID,916.736,VALID,0,VALID,100,VALID,-0.0169808,VALID,18.3906,VALID,153,VALID,0.758203,
2008-08-25, 03:31:00,VALID,916.734,VALID,0,VALID,100,VALID,-0.0169808,VALID,18.3938,VALID,161,VALID,0.192454,
2008-08-25, 03:32:00,VALID,916.731,VALID,0,VALID,100,VALID,-0.0679233,VALID,18.3938,VALID,158,VALID,0,
2008-08-25, 03:33:00,VALID,916.727,VALID,0,VALID,100,VALID,0,VALID,18.3936,VALID,154,VALID,0.00117188,
2008-08-25, 03:34:00,VALID,916.728,VALID,0,VALID,100,VALID,-0.0169808,VALID,18.3871,VALID,151,VALID,0.0148628,
2008-08-25, 03:35:00,VALID,916.723,VALID,0,VALID,100,VALID,0,VALID,18.3871,VALID,153,VALID,0.378005,
2008-08-25, 03:36:00,VALID,916.712,VALID,0,VALID,100,VALID,-0.0169808,VALID,18.3806,VALID,165,VALID,0.0291941,
2008-08-25, 03:37:00,VALID,916.709,VALID,0,VALID,100,VALID,0,VALID,18.3841,VALID,168,VALID,0.666493,
2008-08-25, 03:38:00,VALID,916.698,VALID,0,VALID,100,VALID,-0.0169808,VALID,18.3707,VALID,165,VALID,0.932292,
2008-08-25, 03:39:00,VALID,916.69,VALID,0,VALID,100,VALID,-0.0169808,VALID,18.3709,VALID,171,VALID,0.2883,
2008-08-25, 03:40:00,VALID,916.691,VALID,0,VALID,100,VALID,-0.0339617,VALID,18.3674,VALID,171,VALID,0.205433,
2008-08-25, 03:41:00,VALID,916.696,VALID,0,VALID,100,VALID,-0.0169808,VALID,18.3809,VALID,169,VALID,0.239583,
2008-08-25, 03:42:00,VALID,916.7,VALID,0,VALID,100,VALID,-0.0339617,VALID,18.3776,VALID,170,VALID,0.976944,
2008-08-25, 03:43:00,VALID,916.7,VALID,0,VALID,100,VALID,-0.0339617,VALID,18.3744,VALID,176,VALID,1.10449,
2008-08-25, 03:44:00,VALID,916.704,VALID,0,VALID,100,VALID,-0.0339617,VALID,18.3709,VALID,174,VALID,0.489931,
2008-08-25, 03:45:00,VALID,916.705,VALID,0,VALID,100,VALID,-0.0509425,VALID,18.3709,VALID,178,VALID,0.642969,
2008-08-25, 03:46:00,VALID,916.695,VALID,0,VALID,100,VALID,-0.0339617,VALID,18.3744,VALID,176,VALID,0.977493,